Wind_Speed
34 33 32 32 31 31 31 31 31 29 28 26 25 24 21 17 14 15 15 16 16 18 20 20 21 21 19 18 16 14 14 14 14 14 16 16 17 19 20 14 7 6 3 5 3 3 2
35 34 32 32 32 31 31 30 32 32 30 28 26 26 24 21 17 17 17 18 18 17 20 21 21 21 19 17 17 15 14 13 12 12 12 13 13 12 15 11 17 11 3 3 0 2 4
34 35 34 32 31 32 31 31 30 31 30 29 29 28 27 23 20 19 19 18 19 19 19 21 23 22 21 18 17 15 13 12 11 11 10 11 12 12 8 11 10 2 5 5 6 9 9
32 33 34 34 34 33 32 32 32 32 31 31 31 30 28 25 22 19 20 20 20 21 21 21 22 22 20 20 17 15 14 12 11 12 11 11 10 9 9 5 1 3 3 6 1 7 13
30 32 33 33 35 35 35 34 34 34 33 32 32 32 31 29 26 22 22 22 21 22 23 22 22 22 20 20 18 16 15 14 13 12 12 12 11 9 8 8 11 10 8 13 18 7 10
24 28 31 33 34 34 35 36 37 36 35 34 33 32 31 31 30 26 24 24 23 24 23 24 24 23 23 21 18 17 16 15 14 14 13 13 13 12 10 10 12 7 4 6 7 11 16
19 21 23 26 28 31 35 37 37 39 39 37 36 34 32 32 31 30 27 27 26 25 24 24 23 22 21 21 19 18 17 17 15 14 14 15 14 11 13 18 14 17 12 12 6 6 15
19 20 21 24 25 26 27 30 34 39 40 40 39 35 34 32 32 31 30 30 26 26 25 24 23 23 21 20 20 18 18 18 17 16 15 12 12 12 21 19 16 12 18 22 18 11 21
23 23 22 21 23 24 24 23 24 28 36 39 40 40 36 35 33 32 31 32 30 29 27 24 22 22 20 20 21 19 18 19 17 16 15 16 17 16 18 12 12 12 14 24 25 24 9
27 28 27 26 24 22 22 23 25 23 26 33 37 40 40 38 35 34 36 31 31 30 28 24 25 21 22 21 20 19 16 19 18 18 16 18 19 18 15 16 14 13 15 18 22 13 10
26 28 32 31 31 27 24 24 23 23 23 24 30 34 39 40 39 38 31 31 32 31 30 23 27 25 24 20 22 21 20 20 19 18 19 17 18 19 12 10 18 16 22 18 9 11 15
24 25 24 24 31 30 27 27 27 24 21 23 24 28 33 37 41 41 35 35 34 32 33 26 29 26 26 22 24 24 22 21 20 20 21 16 22 21 15 16 15 14 19 12 13 12 8
18 19 22 25 24 30 30 28 28 28 26 22 23 23 26 32 37 39 38 35 35 37 26 27 28 25 22 23 26 27 22 21 21 20 15 18 18 13 14 14 14 14 17 15 14 6 10
18 22 23 24 27 29 30 29 28 29 30 26 23 23 25 26 29 37 45 43 41 29 26 16 9 16 25 23 24 25 24 23 24 20 18 15 15 12 7 11 14 16 16 14 15 12 16
23 23 25 27 27 29 30 30 30 30 29 31 28 26 26 23 28 38 44 49 40 27 25 28 17 15 17 25 20 24 24 22 23 22 21 16 6 16 14 15 17 14 14 12 18 17 20
30 28 27 27 29 30 29 30 30 30 31 31 31 29 27 22 24 36 43 45 37 26 29 35 23 24 17 13 20 21 23 18 20 22 21 17 10 6 14 17 14 17 14 17 17 17 17
33 32 30 30 29 30 31 30 30 29 30 32 32 32 26 28 24 30 36 32 30 38 40 40 31 31 31 20 17 19 16 16 17 21 22 22 19 16 18 18 14 13 15 14 15 18 23
31 31 31 31 30 30 30 31 30 30 30 31 33 34 32 31 28 25 23 26 34 43 46 47 39 30 29 30 24 25 19 17 14 10 19 22 27 20 16 8 13 10 12 13 20 22 18
24 29 29 30 31 30 29 30 31 30 30 31 33 33 32 31 29 23 26 30 35 38 46 47 46 35 31 35 30 30 24 28 24 25 26 29 32 32 26 23 16 17 16 23 24 30 28
18 22 25 27 29 28 28 28 30 30 31 31 31 29 34 33 32 33 32 34 35 40 38 39 43 41 38 39 32 35 40 32 28 29 33 34 27 27 29 23 23 23 23 28 19 9 12
17 19 23 25 26 26 26 26 28 29 29 32 33 37 40 39 38 35 35 34 38 39 39 38 33 44 43 40 40 36 39 41 34 33 31 32 30 31 27 26 30 27 19 11 12 16 21
19 18 20 24 25 25 25 26 25 28 28 32 36 35 30 33 36 42 40 40 40 43 42 40 33 36 40 43 41 43 42 33 39 38 35 31 32 30 28 28 26 27 30 20 20 22 26
18 17 17 19 24 25 25 25 25 27 28 28 28 32 30 31 28 33 43 43 42 47 41 35 36 38 39 44 49 51 48 39 38 41 36 36 37 33 36 29 29 32 22 25 26 26 28
18 17 16 16 19 25 25 26 27 26 28 29 31 32 33 34 32 33 33 36 37 36 38 39 46 46 47 43 41 37 40 42 39 47 37 30 31 33 29 29 34 26 22 24 26 32 35
18 16 15 14 15 19 25 26 28 28 28 29 30 31 31 33 36 35 36 35 40 48 45 44 49 46 45 41 40 43 42 43 39 43 41 32 33 32 32 35 34 29 28 30 35 36 39
19 18 16 15 14 15 19 26 27 30 29 29 30 31 32 36 38 37 40 43 45 44 47 48 46 42 36 35 39 46 44 40 42 40 39 36 35 36 33 40 37 26 33 35 34 36 38
19 21 19 17 15 15 16 22 28 30 31 31 31 31 31 35 36 37 39 40 41 40 37 40 43 45 38 37 38 39 38 35 39 38 39 38 37 37 34 40 37 30 29 37 39 37 42
19 19 20 18 17 15 17 17 24 30 32 33 33 31 31 34 34 33 34 33 31 33 34 38 39 42 37 39 40 40 35 32 34 32 34 39 41 41 41 41 40 37 35 37 37 36 42
20 20 20 19 19 17 16 19 20 27 30 33 33 32 31 32 33 31 35 36 35 36 34 36 40 40 37 36 40 41 38 33 32 36 30 33 38 35 38 42 43 41 38 38 37 33 32
Wind_Direction
218 218 218 218 219 220 221 222 224 225 224 225 225 227 233 230 230 222 217 214 207 203 199 198 194 193 183 176 175 173 167 161 156 165 169 172 182 183 201 176 198 198 215 183 177 195 326
219 220 220 221 221 223 224 225 225 226 226 227 227 229 232 234 232 225 221 216 212 207 203 200 202 202 191 177 180 178 173 171 165 170 177 183 206 207 204 217 174 208 256 173 325 297 334
221 222 222 223 224 226 227 227 229 230 230 228 229 230 234 235 232 223 219 218 218 209 209 204 206 208 201 176 191 186 183 183 179 186 188 194 197 209 224 209 201 212 187 163 77 3 315
222 224 226 227 228 228 229 229 230 231 232 231 230 231 234 237 237 226 222 220 220 218 212 209 209 210 210 202 201 197 192 195 191 195 203 198 203 191 197 218 144 84 164 182 249 202 266
223 225 227 230 232 232 232 232 232 232 232 232 233 232 232 234 238 231 224 224 223 220 217 213 211 214 209 212 210 210 207 206 206 209 211 210 204 200 198 172 141 131 38 24 317 205 249
223 227 229 231 233 236 236 236 235 234 233 232 232 233 233 233 235 235 229 226 225 222 218 217 216 216 214 215 216 218 218 217 211 215 221 218 212 206 193 173 170 155 262 314 313 277 281
220 223 227 232 234 236 238 238 237 235 233 232 232 233 232 232 233 234 230 228 229 226 222 220 217 223 220 221 220 222 223 225 223 218 221 224 213 204 193 185 205 179 197 175 153 256 263
226 226 228 233 234 237 239 241 240 239 235 232 231 231 231 232 231 232 231 229 230 230 224 223 217 223 221 223 223 223 224 226 224 221 219 220 209 202 220 213 225 202 207 203 208 267 269
231 231 234 236 234 234 236 239 241 240 237 235 233 230 229 229 230 232 232 231 227 226 224 227 219 221 218 219 224 223 223 227 222 222 215 214 203 216 228 241 215 203 217 222 237 236 274
240 238 237 238 237 235 236 239 241 241 238 233 232 230 228 227 228 230 230 229 227 229 225 224 230 222 222 217 220 222 224 229 224 224 207 222 223 227 237 231 219 211 223 225 241 258 247
247 248 242 240 239 235 237 239 238 239 236 230 230 229 228 227 226 228 231 231 229 226 228 226 229 227 227 223 225 225 217 224 224 221 216 209 227 242 233 227 221 215 233 245 281 260 271
250 247 247 235 242 237 236 239 235 237 235 233 229 227 227 228 227 225 225 227 226 224 224 233 227 229 229 224 232 227 218 221 220 221 219 216 219 230 235 233 233 232 253 262 268 273 271
260 256 249 241 240 232 237 239 238 238 231 233 229 227 226 229 229 224 225 228 227 226 218 223 237 232 234 224 231 233 220 227 228 229 227 228 235 240 236 234 234 233 248 256 255 240 295
266 257 252 249 243 242 239 238 237 234 228 231 231 228 227 233 230 222 223 222 224 219 216 200 249 253 230 229 225 231 233 225 223 217 208 201 227 241 243 247 248 235 242 253 254 231 255
260 256 254 248 246 242 242 240 235 233 229 229 230 230 230 236 232 224 221 221 220 213 197 189 193 240 245 220 219 230 235 225 222 217 217 195 230 231 253 251 245 259 259 262 258 265 258
265 256 250 248 245 243 241 238 236 231 229 226 226 226 228 231 233 222 220 222 214 203 212 193 195 216 207 225 224 222 240 229 226 217 203 188 192 226 194 236 254 260 258 263 272 278 267
264 260 250 246 242 241 238 237 235 230 226 225 224 224 223 224 227 223 219 216 199 204 204 194 195 204 201 189 222 238 246 239 232 222 203 187 208 178 210 237 273 258 248 256 264 262 263
257 251 251 249 245 238 237 234 233 231 226 224 223 224 221 221 223 221 210 201 193 205 206 192 195 195 198 187 200 214 232 225 237 229 222 214 218 198 190 252 295 275 282 241 257 266 260
265 254 247 246 250 243 235 233 231 230 226 224 224 221 223 222 219 213 204 197 200 208 216 199 198 199 198 189 199 192 205 216 207 207 209 210 233 224 209 215 225 237 244 267 250 258 267
281 259 252 245 245 249 237 232 231 229 226 225 225 221 221 218 216 214 209 203 205 210 221 218 209 200 204 196 198 194 209 212 213 218 215 220 224 229 228 222 230 246 243 249 278 301 299
301 269 252 248 245 244 242 234 229 229 226 224 225 220 218 217 212 212 212 210 208 211 220 222 215 210 204 211 201 199 209 209 202 210 217 223 233 241 238 237 240 248 249 248 284 306 301
314 283 259 246 245 241 239 236 231 228 227 225 227 230 228 230 224 212 211 211 212 216 221 220 211 211 210 209 206 205 208 217 216 223 220 230 236 231 241 243 250 258 267 252 240 251 252
307 302 273 255 242 241 236 234 232 228 226 227 226 227 223 222 228 228 215 212 213 221 229 219 211 214 216 211 214 218 218 216 233 243 229 227 241 243 250 247 255 254 266 250 240 246 253
293 307 289 263 249 239 236 231 230 230 226 226 225 226 223 226 218 214 221 223 216 222 226 230 221 214 219 217 220 224 227 228 238 239 239 245 253 246 244 246 248 258 258 244 234 238 248
283 289 303 281 259 245 235 234 229 229 228 226 227 226 222 222 223 218 213 211 224 211 219 228 232 220 221 225 229 231 233 237 235 240 249 252 252 249 245 237 244 255 248 242 237 238 253
277 279 286 290 275 257 245 233 231 228 227 226 227 226 221 222 223 221 222 220 221 221 222 225 234 235 235 237 238 240 238 239 238 242 244 250 246 245 245 244 246 247 242 241 247 248 250
285 278 271 279 280 265 256 240 232 228 227 225 224 225 223 223 224 226 227 234 236 237 234 232 230 232 231 229 232 237 235 235 234 239 238 245 248 249 244 248 251 250 251 254 251 250 256
281 278 266 270 272 274 258 255 236 230 227 225 224 224 225 226 222 227 232 233 236 239 241 241 237 240 234 235 236 238 238 235 235 235 240 243 242 242 245 250 251 252 248 255 261 261 266
271 272 264 261 264 265 270 255 245 234 228 224 221 220 221 225 226 219 225 227 225 226 228 234 238 239 238 234 234 233 236 236 238 235 228 236 247 250 249 251 253 250 249 251 253 257 258
Height
5836 5840 5844 5848 5851 5856 5859 5862 5867 5870 5874 5877 5879 5883 5886 5888 5891 5894 5896 5898 5901 5903 5906 5908 5912 5915 5918 5921 5923 5925 5927 5928 5929 5931 5933 5935 5935 5936 5937 5937 5941 5944 5943 5944 5945 5946 5946
5831 5835 5840 5844 5848 5852 5855 5859 5863 5867 5870 5873 5876 5880 5883 5885 5889 5892 5894 5897 5899 5901 5904 5907 5910 5914 5917 5921 5922 5925 5926 5928 5929 5930 5932 5934 5936 5937 5937 5938 5939 5940 5942 5944 5946 5946 5946
5826 5830 5835 5840 5843 5848 5851 5855 5859 5862 5865 5869 5873 5877 5880 5883 5886 5889 5891 5894 5897 5899 5902 5905 5908 5911 5915 5920 5921 5924 5925 5926 5928 5929 5931 5934 5935 5937 5939 5939 5938 5942 5944 5945 5945 5946 5945
5821 5826 5830 5835 5839 5843 5847 5850 5854 5858 5861 5865 5869 5872 5876 5879 5882 5886 5888 5891 5894 5897 5900 5902 5905 5909 5914 5916 5919 5922 5924 5925 5926 5928 5931 5932 5934 5936 5937 5940 5942 5943 5945 5944 5944 5943 5946
5816 5820 5825 5829 5833 5837 5841 5845 5849 5852 5856 5860 5864 5868 5872 5875 5879 5883 5886 5888 5891 5894 5896 5899 5903 5907 5911 5913 5916 5919 5922 5924 5925 5927 5929 5931 5933 5935 5938 5939 5940 5941 5943 5945 5944 5943 5944
5812 5816 5820 5824 5827 5831 5835 5839 5843 5847 5851 5855 5859 5863 5867 5871 5875 5878 5882 5884 5887 5890 5893 5896 5899 5904 5907 5910 5914 5916 5919 5921 5924 5925 5928 5930 5931 5933 5936 5938 5937 5937 5939 5943 5944 5945 5943
5808 5811 5815 5818 5821 5825 5829 5832 5836 5840 5844 5849 5853 5857 5862 5866 5870 5873 5877 5880 5884 5888 5891 5893 5898 5900 5904 5907 5910 5913 5915 5918 5921 5924 5925 5928 5929 5932 5935 5934 5934 5936 5940 5941 5943 5944 5943
5805 5807 5810 5813 5816 5819 5822 5825 5828 5832 5837 5841 5846 5851 5856 5860 5864 5867 5871 5875 5880 5885 5888 5889 5893 5896 5900 5903 5907 5910 5913 5917 5919 5921 5923 5926 5927 5930 5930 5930 5932 5937 5938 5940 5941 5941 5941
5801 5804 5807 5809 5811 5814 5817 5819 5822 5824 5828 5833 5838 5844 5849 5854 5858 5863 5866 5870 5875 5879 5883 5887 5890 5893 5897 5900 5903 5906 5910 5912 5915 5918 5922 5922 5923 5925 5928 5929 5931 5934 5937 5939 5938 5937 5939
5797 5799 5801 5804 5807 5809 5812 5814 5816 5818 5821 5825 5830 5836 5842 5847 5853 5855 5858 5865 5870 5875 5879 5886 5887 5890 5893 5897 5901 5902 5905 5910 5911 5915 5917 5919 5920 5921 5924 5927 5929 5932 5932 5933 5933 5936 5937
5792 5794 5796 5798 5802 5804 5806 5809 5811 5814 5817 5819 5823 5828 5833 5839 5845 5849 5858 5862 5865 5870 5874 5882 5883 5887 5889 5893 5895 5899 5902 5905 5908 5911 5914 5917 5917 5919 5922 5924 5925 5930 5927 5929 5932 5933 5933
5786 5787 5790 5792 5794 5798 5800 5804 5806 5810 5812 5814 5817 5821 5826 5832 5836 5843 5849 5853 5858 5865 5868 5873 5877 5882 5885 5889 5891 5895 5898 5901 5904 5906 5908 5912 5913 5915 5920 5921 5923 5925 5925 5929 5929 5930 5930
5781 5782 5784 5786 5788 5791 5794 5797 5800 5804 5807 5809 5812 5815 5819 5823 5829 5837 5843 5848 5853 5854 5869 5870 5872 5877 5881 5885 5887 5889 5893 5897 5900 5903 5907 5909 5911 5914 5916 5919 5921 5923 5924 5925 5927 5926 5925
5776 5776 5778 5779 5781 5784 5787 5790 5793 5797 5801 5804 5808 5811 5814 5817 5823 5828 5833 5839 5843 5856 5863 5868 5870 5872 5876 5880 5883 5885 5888 5892 5896 5900 5902 5905 5909 5912 5915 5917 5918 5919 5921 5922 5922 5923 5922
5769 5770 5771 5772 5775 5777 5780 5783 5786 5790 5794 5798 5802 5806 5808 5812 5814 5818 5824 5828 5840 5852 5856 5860 5863 5868 5870 5875 5879 5881 5884 5889 5892 5896 5899 5901 5904 5907 5910 5913 5915 5916 5917 5919 5918 5919 5919
5760 5761 5763 5764 5767 5770 5772 5775 5779 5783 5787 5791 5795 5799 5802 5806 5806 5809 5814 5823 5838 5845 5848 5854 5859 5864 5868 5872 5875 5877 5880 5885 5888 5891 5896 5900 5901 5904 5906 5908 5911 5913 5915 5915 5915 5915 5915
5750 5752 5753 5756 5758 5761 5764 5768 5771 5776 5780 5784 5788 5791 5798 5798 5801 5804 5809 5821 5832 5835 5839 5846 5851 5855 5862 5867 5873 5874 5878 5881 5884 5888 5892 5897 5898 5901 5905 5906 5908 5909 5910 5911 5912 5912 5911
5739 5741 5744 5747 5749 5752 5756 5760 5764 5768 5773 5776 5780 5785 5788 5793 5798 5801 5810 5817 5824 5824 5830 5836 5844 5851 5855 5860 5865 5871 5877 5879 5881 5884 5887 5891 5894 5896 5898 5903 5903 5905 5905 5906 5905 5906 5906
5731 5733 5735 5738 5741 5744 5747 5751 5756 5761 5766 5769 5772 5779 5783 5788 5794 5800 5805 5811 5815 5818 5823 5831 5838 5845 5852 5853 5860 5866 5871 5872 5875 5878 5882 5885 5886 5892 5895 5898 5900 5900 5901 5902 5902 5901 5901
5726 5726 5728 5731 5734 5736 5740 5743 5748 5753 5758 5762 5767 5773 5775 5781 5788 5792 5797 5803 5809 5812 5818 5827 5833 5838 5842 5848 5853 5859 5861 5865 5869 5874 5877 5879 5882 5886 5890 5893 5893 5894 5896 5897 5898 5897 5897
5722 5721 5722 5724 5726 5729 5733 5736 5740 5745 5750 5754 5758 5761 5764 5771 5779 5787 5793 5800 5803 5806 5811 5818 5825 5829 5836 5843 5847 5855 5855 5857 5860 5866 5871 5875 5879 5881 5885 5887 5886 5888 5889 5893 5894 5894 5893
5717 5716 5716 5717 5720 5723 5726 5730 5733 5737 5742 5747 5751 5757 5766 5769 5775 5779 5784 5790 5797 5801 5804 5812 5820 5825 5830 5837 5843 5844 5845 5846 5854 5859 5865 5867 5871 5874 5877 5881 5884 5885 5886 5886 5888 5889 5889
5713 5711 5710 5711 5713 5716 5719 5723 5726 5730 5736 5741 5744 5750 5757 5760 5768 5773 5776 5781 5789 5793 5800 5807 5812 5815 5821 5823 5825 5830 5839 5846 5848 5849 5858 5864 5865 5870 5872 5877 5876 5877 5884 5881 5881 5880 5878
5709 5707 5706 5705 5706 5709 5713 5716 5720 5724 5728 5733 5737 5742 5749 5752 5757 5762 5769 5774 5785 5789 5793 5795 5798 5805 5808 5818 5826 5833 5836 5840 5844 5843 5849 5856 5860 5863 5866 5870 5868 5877 5875 5872 5873 5869 5870
5704 5703 5702 5701 5701 5703 5706 5709 5713 5717 5722 5726 5731 5736 5741 5744 5749 5757 5760 5765 5769 5776 5780 5785 5789 5799 5805 5815 5822 5824 5829 5833 5840 5842 5845 5850 5853 5855 5857 5861 5864 5868 5866 5863 5862 5865 5864
5699 5699 5698 5698 5697 5698 5699 5702 5706 5710 5715 5719 5723 5728 5733 5736 5744 5748 5753 5755 5758 5766 5774 5781 5784 5792 5804 5808 5811 5813 5820 5827 5831 5835 5839 5841 5845 5846 5850 5851 5854 5862 5856 5853 5852 5852 5852
5694 5694 5693 5693 5693 5693 5694 5696 5699 5703 5707 5712 5716 5720 5726 5729 5736 5741 5747 5752 5757 5762 5769 5773 5776 5781 5791 5796 5800 5804 5811 5818 5820 5825 5831 5833 5835 5836 5842 5842 5847 5852 5851 5846 5847 5850 5844
5688 5688 5688 5688 5688 5688 5689 5690 5693 5696 5700 5704 5710 5715 5720 5724 5730 5737 5741 5746 5753 5758 5764 5768 5773 5774 5785 5789 5793 5798 5804 5809 5813 5817 5821 5823 5825 5829 5833 5834 5837 5839 5841 5840 5843 5846 5845
5683 5683 5683 5683 5683 5684 5684 5685 5687 5690 5693 5698 5702 5707 5712 5718 5725 5728 5731 5737 5743 5748 5753 5756 5760 5767 5777 5782 5784 5788 5795 5802 5805 5808 5813 5815 5817 5823 5826 5827 5826 5828 5833 5832 5833 5834 5838